{"data":{"norad_id":67495,"intl_designator":"2026-012C","name":"STARLINK-36550","alt_names":[],"object_type":"PAYLOAD","status":"ACTIVE","operator":null,"country":"US","launch_date":"2026-01-18","launch_site_code":"AFETR","launch_vehicle":null,"mission":null,"orbit_class":"UNKNOWN","rcs_meters":null,"size_class":null,"mass_kg":null,"dimensions":null,"purposes":["comms"],"wikipedia_slug":null,"has_3d_model":false,"image_url":null,"decayed_at":null,"tle_current":{"epoch":"2026-09-19T09:30:48.275712Z","epoch_age_seconds":167572,"freshness":"FRESH","line1":"1 67495U 26012C   26262.39639208  .00006252  00000+0  23653-3 0  9996","line2":"2 67495  43.0002 300.7330 0001524 277.2491  82.8187 15.27579261 37382","mean_motion":15.27579261,"eccentricity":0.0001524,"inclination_deg":43.0002,"raan_deg":300.733,"arg_perigee_deg":277.2491,"mean_anomaly_deg":82.8187,"bstar":0.00023653,"rev_number":3738,"period_min":94.266794317261,"perigee_km":482.00566377413,"apogee_km":484.09695397067,"semimajor_km":6861.1883088724,"source":"CELESTRAK","updated_at":"2026-09-20T09:00:43.556136Z"}}}